New York, NY

3:54 PM EST on January 23, 2018 (GMT -0500)
La Guardia

Weather History for KLGA - September, 2013

Change the Weather History Date:

Wednesday, September 4, 2013

  Actual Average Record
Temperature  
Mean Temperature 74 °F 73 °F  
Max Temperature 82 °F 80 °F 93 °F (1973)
Min Temperature 66 °F 66 °F 54 °F (1997)
Degree Days  
Heating Degree Days 0 0  
Month to date heating degree days 0 0  
Since 1 July heating degree days 0 1  
Cooling Degree Days 9 8  
Month to date cooling degree days 47 34  
Year to date cooling degree days 1266 1067  
Growing Degree Days 24 (Base 50)    
Moisture  
Dew Point 54 °F    
Average Humidity 51    
Maximum Humidity 68    
Minimum Humidity 34    
Precipitation  
Precipitation 0.00 in 0.12 in 3.12 in (1969)
Month to date precipitation 0.99 0.47  
Year to date precipitation 28.33 30.72  
Snow  
Snow 0.00 in 0.00 in - ()
Month to date snowfall 0.0 0.0  
Since 1 July snowfall 0.0 0.0  
Snow Depth 0.00 in    
Sea Level Pressure  
Sea Level Pressure 29.95 in    
Wind  
Wind Speed 11 mph (WNW)    
Max Wind Speed 18 mph    
Max Gust Speed 23 mph    
Visibility 10 miles    
Events      
T = Trace of Precipitation, MM = Missing Value Source: NWS Daily Summary

Daily Weather History Graph

Daily Weather History Graph

Search for Another Location

Airport or City:

Trip Planner

Search our weather history database for the weather conditions in past years. The results will help you decide how hot, cold, wet, or windy it might be!

Date:

Astronomy

Sep. 04, 2013 Rise Set
Actual Time 6:25 AM EDT 7:22 PM EDT
Civil Twilight 5:57 AM EDT 7:50 PM EDT
Nautical Twilight 5:24 AM EDT 8:23 PM EDT
Astronomical Twilight 4:49 AM EDT 8:58 PM EDT
Moon 5:35 AM EDT (9/4) 6:40 PM EDT (9/4)
Length of Visible Light 13h 52m
Length of Day
12h 56m
Waning Crescent, 1% of the Moon is Illuminated
Sep 4
Waning Crescent
Sep 5
New
Sep 12
First Quarter
Sep 19
Full
Sep 26
Last Quarter

Hourly Weather History & Observations

Time (EDT) Temp. Heat Index Dew Point Humidity Pressure Visibility Wind Dir Wind Speed Gust Speed Precip Events Conditions
12:51 AM 70.0 °F - 55.9 °F 61% 29.89 in 10.0 mi NW 10.4 mph - N/A   Partly Cloudy
1:51 AM 69.1 °F - 55.9 °F 63% 29.91 in 10.0 mi NW 10.4 mph - N/A   Clear
2:51 AM 68.0 °F - 55.9 °F 65% 29.91 in 10.0 mi NW 11.5 mph - N/A   Partly Cloudy
3:51 AM 68.0 °F - 55.9 °F 65% 29.91 in 10.0 mi WNW 12.7 mph - N/A   Clear
4:51 AM 66.9 °F - 55.9 °F 68% 29.93 in 10.0 mi WNW 18.4 mph 23.0 mph N/A   Clear
5:51 AM 66.9 °F - 55.9 °F 68% 29.94 in 10.0 mi WNW 10.4 mph - N/A   Partly Cloudy
6:51 AM 66.9 °F - 55.9 °F 68% 29.96 in 10.0 mi NW 16.1 mph 23.0 mph N/A   Partly Cloudy
7:51 AM 66.9 °F - 55.9 °F 68% 29.98 in 10.0 mi NW 12.7 mph - N/A   Partly Cloudy
8:51 AM 69.1 °F - 55.0 °F 61% 29.99 in 10.0 mi NW 13.8 mph - N/A   Clear
9:51 AM 71.1 °F - 55.0 °F 57% 29.99 in 10.0 mi NW 10.4 mph - N/A   Partly Cloudy
10:51 AM 73.0 °F - 53.1 °F 49% 29.98 in 10.0 mi NNW 9.2 mph - N/A   Partly Cloudy
11:51 AM 75.0 °F - 48.0 °F 38% 29.97 in 10.0 mi NW 9.2 mph - N/A   Clear
12:51 PM 77.0 °F - 48.9 °F 37% 29.97 in 10.0 mi NW 8.1 mph - N/A   Clear
1:51 PM 79.0 °F - 48.9 °F 35% 29.96 in 10.0 mi West 8.1 mph - N/A   Partly Cloudy
2:51 PM 81.0 °F - 50.0 °F 34% 29.95 in 10.0 mi WNW 12.7 mph 19.6 mph N/A   Partly Cloudy
3:51 PM 82.0 °F - 52.0 °F 35% 29.94 in 10.0 mi West 11.5 mph 18.4 mph N/A   Clear
4:51 PM 81.0 °F 80.4 °F 53.1 °F 38% 29.94 in 10.0 mi WSW 12.7 mph - N/A   Scattered Clouds
5:51 PM 80.1 °F 80.0 °F 54.0 °F 40% 29.94 in 10.0 mi WSW 10.4 mph 19.6 mph N/A   Scattered Clouds
6:51 PM 80.1 °F 80.0 °F 54.0 °F 40% 29.94 in 10.0 mi WSW 10.4 mph - N/A   Mostly Cloudy
7:51 PM 79.0 °F - 54.0 °F 42% 29.94 in 10.0 mi WSW 11.5 mph - N/A   Scattered Clouds
8:51 PM 78.1 °F - 55.0 °F 45% 29.95 in 10.0 mi WSW 9.2 mph - N/A   Partly Cloudy
9:51 PM 77.0 °F - 55.0 °F 47% 29.96 in 10.0 mi WSW 12.7 mph - N/A   Clear
10:51 PM 77.0 °F - 54.0 °F 45% 29.97 in 10.0 mi West 12.7 mph - N/A   Clear
11:51 PM 75.9 °F - 54.0 °F 46% 29.96 in 10.0 mi WSW 9.2 mph - N/A   Clear